North Platte, NE

10:51 PM CDT on April 24, 2018 (GMT -0500)
North Platte Regional-Bird

Weather History for KLBF - May, 2014

Change the Weather History Date:

Friday, May 9, 2014

  Actual Average Record
Temperature  
Mean Temperature 50 °F 56 °F  
Max Temperature 71 °F 70 °F 95 °F (1928)
Min Temperature 29 °F 42 °F 25 °F (1997)
Degree Days  
Heating Degree Days 15 10  
Month to date heating degree days 116 99  
Since 1 July heating degree days 6683 6489  
Cooling Degree Days 0 0  
Month to date cooling degree days 0 0  
Year to date cooling degree days 2 3  
Moisture  
Dew Point 37 °F    
Average Humidity 65    
Maximum Humidity 96    
Minimum Humidity 33    
Precipitation  
Precipitation T in 0.09 in 1.14 in (1881)
Month to date precipitation 0.39 0.83  
Year to date precipitation 2.87 4.99  
Snow  
Snow 0.00 in 0.00 in T in (1979)
Month to date snowfall T 0.0  
Since 1 July snowfall 29.8 28.5  
Snow Depth 0.00 in    
Sea Level Pressure  
Sea Level Pressure 29.85 in    
Wind  
Wind Speed 6 mph (SW)    
Max Wind Speed 16 mph    
Max Gust Speed 21 mph    
Visibility 10 miles    
Events      
T = Trace of Precipitation, MM = Missing Value Source: NWS Daily Summary

Daily Weather History Graph

Daily Weather History Graph

Search for Another Location

Airport or City:

Astronomy

May. 09, 2014 Rise Set
Actual Time 6:30 AM CDT 8:48 PM CDT
Civil Twilight 6:00 AM CDT 9:19 PM CDT
Nautical Twilight 5:22 AM CDT 9:57 PM CDT
Astronomical Twilight 4:40 AM CDT 10:39 PM CDT
Moon 3:44 PM CDT (5/9) 3:36 AM CDT (5/9)
Length of Visible Light 15h 18m
Length of Day
14h 17m
Waxing Gibbous, 74% of the Moon is Illuminated
May 9
Waxing Gibbous
May 14
Full
May 21
Last Quarter
May 28
New
Jun 5
First Quarter

Hourly Weather History & Observations

Time (CDT) Temp. Windchill Dew Point Humidity Pressure Visibility Wind Dir Wind Speed Gust Speed Precip Events Conditions
12:53 AM 32.0 °F 26.4 °F 30.0 °F 92% 29.97 in 10.0 mi NW 5.8 mph - N/A   Clear
1:53 AM 30.9 °F - 28.9 °F 92% 29.99 in 10.0 mi Calm Calm - N/A   Clear
2:53 AM 32.0 °F 27.5 °F 28.9 °F 88% 29.97 in 10.0 mi NNW 4.6 mph - N/A   Clear
3:53 AM 30.2 °F 24.3 °F 28.4 °F 93% 29.91 in 10.0 mi NW 5.8 mph - N/A   Clear
4:53 AM 32.0 °F 25.6 °F 28.9 °F 88% 29.93 in 10.0 mi West 6.9 mph - N/A   Clear
5:53 AM 30.0 °F 24.1 °F 28.0 °F 92% 29.93 in 10.0 mi WNW 5.8 mph - N/A   Mostly Cloudy
6:53 AM 28.9 °F 25.2 °F 27.0 °F 92% 29.94 in 10.0 mi NW 3.5 mph - N/A   Clear
7:53 AM 34.0 °F - 32.0 °F 92% 29.95 in 10.0 mi Calm Calm - N/A   Partly Cloudy
8:53 AM 39.9 °F 37.8 °F 36.0 °F 86% 29.94 in 10.0 mi South 3.5 mph - N/A   Overcast
9:53 AM 48.2 °F - 37.4 °F 66% 29.90 in 10.0 mi South 12.7 mph - N/A   Clear
10:53 AM 53.1 °F - 39.0 °F 59% 29.90 in 10.0 mi South 11.5 mph 18.4 mph N/A   Clear
11:53 AM 57.0 °F - 42.1 °F 57% 29.89 in 10.0 mi SSW 12.7 mph - N/A   Clear
12:53 PM 61.0 °F - 43.0 °F 52% 29.86 in 10.0 mi SW 9.2 mph - N/A   Clear
1:53 PM 64.9 °F - 42.1 °F 43% 29.81 in 10.0 mi SSW 10.4 mph - N/A   Clear
2:53 PM 66.0 °F - 39.0 °F 37% 29.79 in 10.0 mi WSW 9.2 mph - N/A   Scattered Clouds
3:53 PM 69.1 °F - 41.0 °F 36% 29.76 in 10.0 mi WSW 9.2 mph - N/A   Mostly Cloudy
4:53 PM 70.0 °F - 39.0 °F 32% 29.73 in 10.0 mi South 8.1 mph - N/A   Partly Cloudy
5:53 PM 69.1 °F - 41.0 °F 36% 29.73 in 10.0 mi WNW 5.8 mph - N/A   Scattered Clouds
6:53 PM 66.9 °F - 44.1 °F 44% 29.72 in 10.0 mi East 3.5 mph - N/A   Partly Cloudy
7:53 PM 62.1 °F - 46.9 °F 58% 29.72 in 10.0 mi East 5.8 mph - N/A   Overcast
8:53 PM 59.0 °F - 45.0 °F 60% 29.73 in 10.0 mi ESE 5.8 mph - N/A   Mostly Cloudy
9:53 PM 53.6 °F - 42.8 °F 67% 29.74 in 10.0 mi SSE 3.5 mph - N/A   Clear
10:53 PM 51.1 °F - 42.1 °F 71% 29.76 in 10.0 mi Calm Calm - N/A   Clear
11:53 PM 46.9 °F - 42.1 °F 83% 29.77 in 10.0 mi Calm Calm - N/A   Mostly Cloudy